User: anonymous   Login
Location: Unspecified
(0.0000°N, 0.0000°E)
Time: 12:07:04
(UTC+00:00)
Language:

DMSP 5D-2 F-14 - Orbit

View from above orbital plane
View from above orbital plane
View from above satellite
View from above satellite

Ground track
Ground track

The orbit data is extracted from the following two-line orbital elements,

1 24753U 97012A   17080.15720730 0.00000060  00000-0  30604-4 0    07
2 24753  98.9820  67.4728 0006000 335.8831  24.1167 14.15737667    08
Epoch (UTC): 21 March 2017 03:46:22
Eccentricity: 0.0006000
inclination: 98.9820°
perigee height: 835 km
apogee height: 844 km
right ascension of ascending node: 67.4728°
argument of perigee: 335.8831°
revolutions per day: 14.15737667
mean anomaly at epoch: 24.1167°
orbit number at epoch: 0

The dashed part of the orbit path shows where the satellite is in the earth's shadow,  

DLR